Time,TemperatureF,DewpointF,PressureIn,WindDirection,WindDirectionDegrees,WindSpeedMPH,WindSpeedGustMPH,Humidity,HourlyPrecipIn,Conditions,Clouds,dailyrainin,SoftwareType,DateUTC
2013-05-30 00:01:00,70.2,57.4,29.56,North,0,0.0,0.0,64,0.00,,,0.00,VWS V14.01,2013-05-30 04:01:00,
2013-05-30 00:02:00,70.2,57.4,29.56,North,0,0.0,0.0,64,0.00,,,0.00,VWS V14.01,2013-05-30 04:02:00,
2013-05-30 00:07:00,70.0,57.3,29.56,North,0,0.0,0.0,64,0.00,,,0.00,VWS V14.01,2013-05-30 04:07:00,
2013-05-30 00:12:00,69.8,57.1,29.56,North,0,0.0,0.0,64,0.00,,,0.00,VWS V14.01,2013-05-30 04:12:00,
2013-05-30 00:17:00,69.6,57.3,29.56,North,0,0.0,0.0,65,0.00,,,0.00,VWS V14.01,2013-05-30 04:17:00,
2013-05-30 00:22:00,69.6,57.3,29.56,North,0,0.0,0.0,65,0.00,,,0.00,VWS V14.01,2013-05-30 04:22:00,
2013-05-30 00:27:00,69.6,57.3,29.56,North,0,0.0,0.0,65,0.00,,,0.00,VWS V14.01,2013-05-30 04:27:00,
2013-05-30 00:32:00,69.6,57.3,29.56,North,0,0.0,0.0,65,0.00,,,0.00,VWS V14.01,2013-05-30 04:32:00,
2013-05-30 00:38:00,69.4,57.6,29.56,North,0,0.0,0.0,66,0.00,,,0.00,VWS V14.01,2013-05-30 04:38:00,
2013-05-30 00:43:00,69.3,57.4,29.56,SSE,158,2.5,2.5,66,0.00,,,0.00,VWS V14.01,2013-05-30 04:43:00,
2013-05-30 00:48:00,69.1,57.3,29.56,SSE,158,0.0,0.0,66,0.00,,,0.00,VWS V14.01,2013-05-30 04:48:00,
2013-05-30 00:53:00,68.9,57.5,29.56,East,90,0.0,0.0,67,0.00,,,0.00,VWS V14.01,2013-05-30 04:53:00,
2013-05-30 00:58:00,68.5,57.2,29.56,SE,135,0.0,0.0,67,0.00,,,0.00,VWS V14.01,2013-05-30 04:58:00,
2013-05-30 01:03:00,68.4,57.4,29.56,SSE,158,2.5,2.5,68,0.00,,,0.00,VWS V14.01,2013-05-30 05:03:00,
2013-05-30 01:08:00,68.0,57.5,29.56,WSW,248,0.0,0.0,69,0.00,,,0.00,VWS V14.01,2013-05-30 05:08:00,
2013-05-30 01:13:00,67.8,57.3,29.56,SE,135,0.9,0.9,69,0.00,,,0.00,VWS V14.01,2013-05-30 05:13:00,
2013-05-30 01:18:00,67.6,57.5,29.56,SSW,202,3.1,3.1,70,0.00,,,0.00,VWS V14.01,2013-05-30 05:18:00,
2013-05-30 01:23:00,67.5,57.3,29.56,SSW,202,1.3,1.3,70,0.00,,,0.00,VWS V14.01,2013-05-30 05:23:00,
2013-05-30 01:28:00,67.6,57.5,29.53,SSW,202,2.5,2.5,70,0.00,,,0.00,VWS V14.01,2013-05-30 05:28:00,
2013-05-30 01:33:00,67.6,57.5,29.53,SSW,202,2.0,2.0,70,0.00,,,0.00,VWS V14.01,2013-05-30 05:33:00,
2013-05-30 01:38:00,67.3,57.6,29.53,South,180,2.5,2.5,71,0.00,,,0.00,VWS V14.01,2013-05-30 05:38:00,
2013-05-30 01:43:00,67.1,57.4,29.56,SSW,202,2.0,2.0,71,0.00,,,0.00,VWS V14.01,2013-05-30 05:43:00,
2013-05-30 01:48:00,67.1,57.8,29.56,SSW,202,2.0,2.0,72,0.00,,,0.00,VWS V14.01,2013-05-30 05:48:00,
2013-05-30 01:53:00,67.1,57.8,29.56,SSW,202,2.0,2.0,72,0.00,,,0.00,VWS V14.01,2013-05-30 05:53:00,
2013-05-30 01:58:00,66.9,57.6,29.56,South,180,1.3,1.3,72,0.00,,,0.00,VWS V14.01,2013-05-30 05:58:00,
2013-05-30 02:03:00,66.9,57.6,29.56,SW,225,2.2,2.2,72,0.00,,,0.00,VWS V14.01,2013-05-30 06:03:00,
2013-05-30 02:09:00,66.7,57.8,29.56,SW,225,1.3,1.3,73,0.00,,,0.00,VWS V14.01,2013-05-30 06:09:00,
2013-05-30 02:14:00,66.7,57.8,29.59,South,180,2.5,2.5,73,0.00,,,0.00,VWS V14.01,2013-05-30 06:14:00,
2013-05-30 02:19:00,66.7,58.2,29.59,SW,225,2.9,2.9,74,0.00,,,0.00,VWS V14.01,2013-05-30 06:19:00,
2013-05-30 02:24:00,66.6,58.0,29.59,SSW,202,2.5,2.5,74,0.00,,,0.00,VWS V14.01,2013-05-30 06:24:00,
2013-05-30 02:29:00,66.4,57.8,29.59,SSW,202,0.9,0.9,74,0.00,,,0.00,VWS V14.01,2013-05-30 06:29:00,
2013-05-30 02:34:00,66.4,57.8,29.59,SSW,202,2.5,2.5,74,0.00,,,0.00,VWS V14.01,2013-05-30 06:34:00,
2013-05-30 02:39:00,66.6,58.0,29.59,SSW,202,2.0,2.0,74,0.00,,,0.00,VWS V14.01,2013-05-30 06:39:00,
2013-05-30 02:44:00,66.6,58.0,29.59,SSW,202,2.0,2.0,74,0.00,,,0.00,VWS V14.01,2013-05-30 06:44:00,
2013-05-30 02:49:00,66.6,58.0,29.59,SW,225,1.6,1.6,74,0.00,,,0.00,VWS V14.01,2013-05-30 06:49:00,
2013-05-30 02:54:00,66.4,57.8,29.59,SSW,202,1.6,1.6,74,0.00,,,0.00,VWS V14.01,2013-05-30 06:54:00,
2013-05-30 02:59:00,66.2,57.7,29.56,SSW,202,2.9,2.9,74,0.00,,,0.00,VWS V14.01,2013-05-30 06:59:00,
2013-05-30 03:04:00,66.2,58.0,29.56,South,180,4.0,4.0,75,0.00,,,0.00,VWS V14.01,2013-05-30 07:04:00,
2013-05-30 03:09:00,66.0,57.9,29.56,SW,225,1.6,1.6,75,0.00,,,0.00,VWS V14.01,2013-05-30 07:09:00,
2013-05-30 03:14:00,65.8,58.1,29.59,SSW,202,0.0,0.0,76,0.00,,,0.00,VWS V14.01,2013-05-30 07:14:00,
2013-05-30 03:20:00,65.7,57.9,29.59,SSW,202,2.0,2.0,76,0.00,,,0.00,VWS V14.01,2013-05-30 07:20:00,
2013-05-30 03:25:00,65.7,58.3,29.59,SSW,202,0.9,0.9,77,0.00,,,0.00,VWS V14.01,2013-05-30 07:25:00,
2013-05-30 03:30:00,65.5,58.1,29.59,SSW,202,0.0,0.0,77,0.00,,,0.00,VWS V14.01,2013-05-30 07:30:00,
2013-05-30 03:35:00,65.5,58.1,29.59,SSW,202,2.0,2.0,77,0.00,,,0.00,VWS V14.01,2013-05-30 07:35:00,
2013-05-30 03:40:00,65.5,58.1,29.59,SSW,202,2.2,2.2,77,0.00,,,0.00,VWS V14.01,2013-05-30 07:40:00,
2013-05-30 03:45:00,65.5,58.1,29.59,SSE,158,0.0,0.0,77,0.00,,,0.00,VWS V14.01,2013-05-30 07:45:00,
2013-05-30 03:50:00,65.3,57.9,29.59,SSE,158,1.1,1.1,77,0.00,,,0.00,VWS V14.01,2013-05-30 07:50:00,
2013-05-30 03:55:00,65.1,57.7,29.59,SSE,158,0.0,0.0,77,0.00,,,0.00,VWS V14.01,2013-05-30 07:55:00,
2013-05-30 04:00:00,65.1,57.7,29.59,SSE,158,0.0,0.0,77,0.00,,,0.00,VWS V14.01,2013-05-30 08:00:00,
2013-05-30 04:05:00,64.8,57.4,29.59,SSE,158,0.0,0.0,77,0.00,,,0.00,VWS V14.01,2013-05-30 08:05:00,
2013-05-30 04:10:00,64.8,57.8,29.59,SSE,158,0.0,0.0,78,0.00,,,0.00,VWS V14.01,2013-05-30 08:10:00,
2013-05-30 04:16:00,64.6,57.6,29.59,SSE,158,0.0,0.0,78,0.00,,,0.00,VWS V14.01,2013-05-30 08:16:00,
2013-05-30 04:20:00,64.6,57.6,29.59,SSE,158,0.0,0.0,78,0.00,,,0.00,VWS V14.01,2013-05-30 08:20:00,
2013-05-30 04:26:00,64.6,57.6,29.59,SSE,158,0.0,0.0,78,0.00,,,0.00,VWS V14.01,2013-05-30 08:26:00,
2013-05-30 04:31:00,64.4,57.4,29.59,SSE,158,0.0,0.0,78,0.00,,,0.00,VWS V14.01,2013-05-30 08:31:00,
2013-05-30 04:36:00,64.4,57.8,29.59,SSE,158,0.0,0.0,79,0.00,,,0.00,VWS V14.01,2013-05-30 08:36:00,
2013-05-30 04:41:00,64.2,57.6,29.59,SE,135,2.0,2.0,79,0.00,,,0.00,VWS V14.01,2013-05-30 08:41:00,
2013-05-30 04:46:00,64.2,57.6,29.59,SE,135,0.0,0.0,79,0.00,,,0.00,VWS V14.01,2013-05-30 08:46:00,
2013-05-30 04:51:00,64.0,57.8,29.59,SE,135,0.0,0.0,80,0.00,,,0.00,VWS V14.01,2013-05-30 08:51:00,
2013-05-30 04:56:00,63.9,57.6,29.62,SE,135,2.7,2.7,80,0.00,,,0.00,VWS V14.01,2013-05-30 08:56:00,
2013-05-30 05:01:00,63.9,57.6,29.62,SSE,158,1.3,1.3,80,0.00,,,0.00,VWS V14.01,2013-05-30 09:01:00,
2013-05-30 05:06:00,63.9,57.9,29.62,ESE,112,0.0,0.0,81,0.00,,,0.00,VWS V14.01,2013-05-30 09:06:00,
2013-05-30 05:11:00,63.5,57.6,29.62,South,180,0.0,0.0,81,0.00,,,0.00,VWS V14.01,2013-05-30 09:11:00,
2013-05-30 05:16:00,63.5,57.6,29.62,ENE,68,0.0,0.0,81,0.00,,,0.00,VWS V14.01,2013-05-30 09:16:00,
2013-05-30 05:21:00,63.3,57.4,29.62,SE,135,2.0,2.0,81,0.00,,,0.00,VWS V14.01,2013-05-30 09:21:00,
2013-05-30 05:26:00,63.1,57.2,29.62,ESE,112,2.7,2.7,81,0.00,,,0.00,VWS V14.01,2013-05-30 09:26:00,
2013-05-30 05:31:00,63.1,57.6,29.62,WSW,248,1.6,1.6,82,0.00,,,0.00,VWS V14.01,2013-05-30 09:31:00,
2013-05-30 05:37:00,63.0,57.4,29.62,West,270,1.1,1.1,82,0.00,,,0.00,VWS V14.01,2013-05-30 09:37:00,
2013-05-30 05:42:00,63.0,57.4,29.62,NNE,22,1.6,1.6,82,0.00,,,0.00,VWS V14.01,2013-05-30 09:42:00,
2013-05-30 05:47:00,62.8,57.2,29.62,NNE,22,0.0,0.0,82,0.00,,,0.00,VWS V14.01,2013-05-30 09:47:00,
2013-05-30 05:52:00,62.8,57.2,29.62,NNE,22,0.0,0.0,82,0.00,,,0.00,VWS V14.01,2013-05-30 09:52:00,
2013-05-30 05:57:00,62.8,57.2,29.62,NNE,22,0.0,0.0,82,0.00,,,0.00,VWS V14.01,2013-05-30 09:57:00,
2013-05-30 06:02:00,62.8,57.5,29.62,NNE,22,0.0,0.0,83,0.00,,,0.00,VWS V14.01,2013-05-30 10:02:00,
2013-05-30 06:07:00,62.8,57.5,29.62,NNE,22,0.0,0.0,83,0.00,,,0.00,VWS V14.01,2013-05-30 10:07:00,
2013-05-30 06:12:00,62.8,57.9,29.59,NNE,22,0.0,0.0,84,0.00,,,0.00,VWS V14.01,2013-05-30 10:12:00,
2013-05-30 06:17:00,62.8,57.9,29.59,NNE,22,0.0,0.0,84,0.00,,,0.00,VWS V14.01,2013-05-30 10:17:00,
2013-05-30 06:22:00,63.0,58.1,29.59,NNE,22,0.0,0.0,84,0.00,,,0.00,VWS V14.01,2013-05-30 10:22:00,
2013-05-30 06:27:00,63.0,58.1,29.62,NNE,22,0.0,0.0,84,0.00,,,0.00,VWS V14.01,2013-05-30 10:27:00,
2013-05-30 06:33:00,63.1,58.6,29.62,North,0,0.9,0.9,85,0.00,,,0.00,VWS V14.01,2013-05-30 10:33:00,
2013-05-30 06:38:00,63.1,58.6,29.62,North,0,0.0,0.0,85,0.00,,,0.00,VWS V14.01,2013-05-30 10:38:00,
2013-05-30 06:43:00,63.3,58.7,29.62,North,0,0.0,0.0,85,0.00,,,0.00,VWS V14.01,2013-05-30 10:43:00,
2013-05-30 06:48:00,63.5,58.9,29.62,North,0,0.0,0.0,85,0.00,,,0.00,VWS V14.01,2013-05-30 10:48:00,
2013-05-30 06:53:00,63.5,59.2,29.62,North,0,0.0,0.0,86,0.00,,,0.00,VWS V14.01,2013-05-30 10:53:00,
2013-05-30 06:58:00,63.9,59.6,29.65,North,0,0.0,0.0,86,0.00,,,0.00,VWS V14.01,2013-05-30 10:58:00,
2013-05-30 07:03:00,64.0,60.1,29.65,North,0,0.0,0.0,87,0.00,,,0.00,VWS V14.01,2013-05-30 11:03:00,
2013-05-30 07:08:00,64.4,60.1,29.65,North,0,0.0,0.0,86,0.00,,,0.00,VWS V14.01,2013-05-30 11:08:00,
2013-05-30 07:13:00,64.6,60.3,29.62,North,0,0.0,0.0,86,0.00,,,0.00,VWS V14.01,2013-05-30 11:13:00,
2013-05-30 07:18:00,64.8,60.5,29.62,SE,135,0.0,0.0,86,0.00,,,0.00,VWS V14.01,2013-05-30 11:18:00,
2013-05-30 07:23:00,65.1,60.8,29.62,ESE,112,0.0,0.0,86,0.00,,,0.00,VWS V14.01,2013-05-30 11:23:00,
2013-05-30 07:28:00,65.5,61.2,29.65,WNW,292,0.0,0.0,86,0.00,,,0.00,VWS V14.01,2013-05-30 11:28:00,
2013-05-30 07:33:00,65.8,61.5,29.65,NNE,22,0.0,0.0,86,0.00,,,0.00,VWS V14.01,2013-05-30 11:33:00,
2013-05-30 07:38:00,66.0,61.4,29.65,NNE,22,0.0,0.0,85,0.00,,,0.00,VWS V14.01,2013-05-30 11:38:00,
2013-05-30 07:43:00,66.4,61.7,29.65,NNE,22,0.0,0.0,85,0.00,,,0.00,VWS V14.01,2013-05-30 11:43:00,
2013-05-30 07:48:00,66.7,62.1,29.65,NNE,22,0.0,0.0,85,0.00,,,0.00,VWS V14.01,2013-05-30 11:48:00,
2013-05-30 07:54:00,67.1,62.5,29.65,NNE,22,1.1,1.1,85,0.00,,,0.00,VWS V14.01,2013-05-30 11:54:00,
2013-05-30 07:59:00,67.3,62.6,29.65,NNE,22,1.1,1.1,85,0.00,,,0.00,VWS V14.01,2013-05-30 11:59:00,
2013-05-30 08:04:00,67.6,62.6,29.65,South,180,1.3,1.3,84,0.00,,,0.00,VWS V14.01,2013-05-30 12:04:00,
2013-05-30 08:09:00,67.8,62.1,29.65,South,180,1.3,1.3,82,0.00,,,0.00,VWS V14.01,2013-05-30 12:09:00,
2013-05-30 08:14:00,68.2,62.1,29.65,SSW,202,2.0,2.0,81,0.00,,,0.00,VWS V14.01,2013-05-30 12:14:00,
2013-05-30 08:19:00,68.7,62.3,29.65,South,180,3.4,3.4,80,0.00,,,0.00,VWS V14.01,2013-05-30 12:19:00,
2013-05-30 08:24:00,68.9,62.5,29.65,South,180,2.7,2.7,80,0.00,,,0.00,VWS V14.01,2013-05-30 12:24:00,
2013-05-30 08:29:00,69.3,62.8,29.65,NW,315,0.0,0.0,80,0.00,,,0.00,VWS V14.01,2013-05-30 12:29:00,
2013-05-30 08:34:00,69.4,62.7,29.65,West,270,1.3,1.3,79,0.00,,,0.00,VWS V14.01,2013-05-30 12:34:00,
2013-05-30 08:39:00,70.0,62.8,29.65,West,270,0.0,0.0,78,0.00,,,0.00,VWS V14.01,2013-05-30 12:39:00,
2013-05-30 08:44:00,70.2,63.0,29.65,East,90,1.3,1.3,78,0.00,,,0.00,VWS V14.01,2013-05-30 12:44:00,
2013-05-30 08:50:00,70.3,63.2,29.65,SSW,202,2.7,2.7,78,0.00,,,0.00,VWS V14.01,2013-05-30 12:50:00,
2013-05-30 08:55:00,70.7,63.1,29.65,WSW,248,2.5,2.5,77,0.00,,,0.00,VWS V14.01,2013-05-30 12:55:00,
2013-05-30 08:59:00,71.1,62.7,29.68,NNW,338,2.0,2.0,75,0.00,,,0.00,VWS V14.01,2013-05-30 12:59:00,
2013-05-30 09:05:00,71.2,63.3,29.68,West,270,0.0,0.0,76,0.00,,,0.00,VWS V14.01,2013-05-30 13:05:00,
2013-05-30 09:10:00,71.6,63.3,29.68,NW,315,0.0,0.0,75,0.00,,,0.00,VWS V14.01,2013-05-30 13:10:00,
2013-05-30 09:15:00,71.8,63.4,29.65,SSE,158,0.0,0.0,75,0.00,,,0.00,VWS V14.01,2013-05-30 13:15:00,
2013-05-30 09:20:00,72.1,63.8,29.65,North,0,0.0,0.0,75,0.00,,,0.00,VWS V14.01,2013-05-30 13:20:00,
2013-05-30 09:25:00,72.5,63.8,29.65,North,0,0.9,0.9,74,0.00,,,0.00,VWS V14.01,2013-05-30 13:25:00,
2013-05-30 09:30:00,72.7,63.9,29.65,NNW,338,1.3,1.3,74,0.00,,,0.00,VWS V14.01,2013-05-30 13:30:00,
2013-05-30 09:35:00,73.2,64.4,29.65,NW,315,2.7,2.7,74,0.00,,,0.00,VWS V14.01,2013-05-30 13:35:00,
2013-05-30 09:40:00,73.6,64.4,29.65,SE,135,0.9,0.9,73,0.00,,,0.00,VWS V14.01,2013-05-30 13:40:00,
2013-05-30 09:45:00,73.9,64.3,29.68,South,180,1.1,1.1,72,0.00,,,0.00,VWS V14.01,2013-05-30 13:45:00,
2013-05-30 09:50:00,74.3,65.1,29.68,SSE,158,2.2,2.2,73,0.00,,,0.00,VWS V14.01,2013-05-30 13:50:00,
2013-05-30 09:55:00,74.5,64.5,29.68,West,270,3.4,3.4,71,0.00,,,0.00,VWS V14.01,2013-05-30 13:55:00,
2013-05-30 10:00:00,74.8,65.2,29.65,West,270,0.0,0.0,72,0.00,,,0.00,VWS V14.01,2013-05-30 14:00:00,
2013-05-30 10:05:00,75.2,65.2,29.65,WSW,248,1.6,1.6,71,0.00,,,0.00,VWS V14.01,2013-05-30 14:05:00,
2013-05-30 10:10:00,75.7,64.9,29.65,West,270,2.5,2.5,69,0.00,,,0.00,VWS V14.01,2013-05-30 14:10:00,
2013-05-30 10:15:00,75.9,64.6,29.65,West,270,0.0,0.0,68,0.00,,,0.00,VWS V14.01,2013-05-30 14:15:00,
2013-05-30 10:20:00,76.3,65.4,29.65,South,180,3.1,3.1,69,0.00,,,0.00,VWS V14.01,2013-05-30 14:20:00,
2013-05-30 10:25:00,76.5,65.1,29.65,SSW,202,0.0,0.0,68,0.00,,,0.00,VWS V14.01,2013-05-30 14:25:00,
2013-05-30 10:31:00,77.0,65.6,29.65,WSW,248,1.6,1.6,68,0.00,,,0.00,VWS V14.01,2013-05-30 14:31:00,
2013-05-30 10:36:00,77.2,65.4,29.65,WSW,248,3.6,3.6,67,0.00,,,0.00,VWS V14.01,2013-05-30 14:36:00,
2013-05-30 10:41:00,77.7,65.5,29.65,WSW,248,3.8,3.8,66,0.00,,,0.00,VWS V14.01,2013-05-30 14:41:00,
2013-05-30 10:46:00,78.3,66.0,29.65,WNW,292,2.0,2.0,66,0.00,,,0.00,VWS V14.01,2013-05-30 14:46:00,
2013-05-30 10:51:00,78.4,63.9,29.65,WNW,292,4.0,4.0,61,0.00,,,0.00,VWS V14.01,2013-05-30 14:51:00,
2013-05-30 10:56:00,78.8,65.6,29.65,NE,45,0.0,0.0,64,0.00,,,0.00,VWS V14.01,2013-05-30 14:56:00,
2013-05-30 11:01:00,78.8,65.6,29.65,North,0,0.0,0.0,64,0.00,,,0.00,VWS V14.01,2013-05-30 15:01:00,
2013-05-30 11:06:00,79.0,65.3,29.65,North,0,0.9,0.9,63,0.00,,,0.00,VWS V14.01,2013-05-30 15:06:00,
2013-05-30 11:11:00,79.2,65.9,29.65,NNW,338,2.0,2.0,64,0.00,,,0.00,VWS V14.01,2013-05-30 15:11:00,
2013-05-30 11:16:00,79.5,66.3,29.65,NNW,338,1.6,1.6,64,0.00,,,0.00,VWS V14.01,2013-05-30 15:16:00,
2013-05-30 11:21:00,79.7,65.5,29.65,WSW,248,2.9,2.9,62,0.00,,,0.00,VWS V14.01,2013-05-30 15:21:00,
2013-05-30 11:26:00,80.1,66.3,29.65,WNW,292,2.5,2.5,63,0.00,,,0.00,VWS V14.01,2013-05-30 15:26:00,
2013-05-30 11:32:00,80.4,65.8,29.65,NNW,338,0.0,0.0,61,0.00,,,0.00,VWS V14.01,2013-05-30 15:32:00,
2013-05-30 11:37:00,80.8,66.1,29.65,WSW,248,3.1,3.1,61,0.00,,,0.00,VWS V14.01,2013-05-30 15:37:00,
2013-05-30 11:42:00,81.5,64.8,29.62,North,0,3.8,3.8,57,0.00,,,0.00,VWS V14.01,2013-05-30 15:42:00,
2013-05-30 11:47:00,81.7,65.0,29.62,NNW,338,4.7,4.7,57,0.00,,,0.00,VWS V14.01,2013-05-30 15:47:00,
2013-05-30 11:52:00,82.2,63.9,29.62,North,0,2.7,2.7,54,0.00,,,0.00,VWS V14.01,2013-05-30 15:52:00,
2013-05-30 11:57:00,82.8,64.4,29.62,West,270,3.1,3.1,54,0.00,,,0.00,VWS V14.01,2013-05-30 15:57:00,
2013-05-30 12:02:00,83.1,63.7,29.62,NNE,22,8.5,8.5,52,0.00,,,0.00,VWS V14.01,2013-05-30 16:02:00,
2013-05-30 12:07:00,83.1,65.3,29.62,NE,45,3.8,3.8,55,0.00,,,0.00,VWS V14.01,2013-05-30 16:07:00,
2013-05-30 12:12:00,83.1,65.3,29.62,ENE,68,4.0,4.0,55,0.00,,,0.00,VWS V14.01,2013-05-30 16:12:00,
2013-05-30 12:17:00,83.1,65.8,29.62,North,0,0.0,0.0,56,0.00,,,0.00,VWS V14.01,2013-05-30 16:17:00,
2013-05-30 12:22:00,83.5,66.2,29.62,North,0,1.6,1.6,56,0.00,,,0.00,VWS V14.01,2013-05-30 16:22:00,
2013-05-30 12:27:00,83.7,65.3,29.62,South,180,1.3,1.3,54,0.00,,,0.00,VWS V14.01,2013-05-30 16:27:00,
2013-05-30 12:32:00,83.7,64.7,29.62,North,0,0.9,0.9,53,0.00,,,0.00,VWS V14.01,2013-05-30 16:32:00,
2013-05-30 12:37:00,83.8,60.2,29.62,WNW,292,3.4,3.4,45,0.00,,,0.00,VWS V14.01,2013-05-30 16:37:00,
2013-05-30 12:42:00,84.6,60.9,29.62,West,270,2.0,2.0,45,0.00,,,0.00,VWS V14.01,2013-05-30 16:42:00,
2013-05-30 12:47:00,84.7,61.7,29.62,NW,315,3.1,3.1,46,0.00,,,0.00,VWS V14.01,2013-05-30 16:47:00,
2013-05-30 12:52:00,85.1,60.8,29.62,NNE,22,1.1,1.1,44,0.00,,,0.00,VWS V14.01,2013-05-30 16:52:00,
2013-05-30 12:57:00,85.5,60.4,29.59,WNW,292,4.9,4.9,43,0.00,,,0.00,VWS V14.01,2013-05-30 16:57:00,
2013-05-30 13:02:00,85.8,60.1,29.59,NW,315,6.3,6.3,42,0.00,,,0.00,VWS V14.01,2013-05-30 17:02:00,
2013-05-30 13:07:00,86.0,58.2,29.59,North,0,4.0,4.0,39,0.00,,,0.00,VWS V14.01,2013-05-30 17:07:00,
2013-05-30 13:12:00,86.2,59.7,29.62,West,270,4.9,4.9,41,0.00,,,0.00,VWS V14.01,2013-05-30 17:12:00,
2013-05-30 13:17:00,86.7,60.9,29.62,West,270,6.9,6.9,42,0.00,,,0.00,VWS V14.01,2013-05-30 17:17:00,
2013-05-30 13:22:00,86.7,59.5,29.62,South,180,2.5,2.5,40,0.00,,,0.00,VWS V14.01,2013-05-30 17:22:00,
2013-05-30 13:27:00,86.2,59.7,29.59,North,0,2.5,2.5,41,0.00,,,0.00,VWS V14.01,2013-05-30 17:27:00,
2013-05-30 13:32:00,86.4,60.6,29.59,North,0,5.8,5.8,42,0.00,,,0.00,VWS V14.01,2013-05-30 17:32:00,
2013-05-30 13:37:00,86.4,59.9,29.59,North,0,4.3,4.3,41,0.00,,,0.00,VWS V14.01,2013-05-30 17:37:00,
2013-05-30 13:42:00,86.0,59.6,29.62,WSW,248,2.2,2.2,41,0.00,,,0.00,VWS V14.01,2013-05-30 17:42:00,
2013-05-30 13:47:00,85.8,60.1,29.62,North,0,2.7,2.7,42,0.00,,,0.00,VWS V14.01,2013-05-30 17:47:00,
2013-05-30 13:52:00,85.5,59.1,29.62,NNW,338,3.4,3.4,41,0.00,,,0.00,VWS V14.01,2013-05-30 17:52:00,
2013-05-30 13:57:00,85.6,60.6,29.62,NE,45,1.6,1.6,43,0.00,,,0.00,VWS V14.01,2013-05-30 17:57:00,
2013-05-30 14:02:00,85.8,60.1,29.62,North,0,2.0,2.0,42,0.00,,,0.00,VWS V14.01,2013-05-30 18:02:00,
2013-05-30 14:07:00,85.8,60.1,29.62,NNE,22,2.0,2.0,42,0.00,,,0.00,VWS V14.01,2013-05-30 18:07:00,
2013-05-30 14:13:00,85.6,59.3,29.62,North,0,1.6,1.6,41,0.00,,,0.00,VWS V14.01,2013-05-30 18:13:00,
2013-05-30 14:18:00,85.5,59.8,29.62,WNW,292,0.9,0.9,42,0.00,,,0.00,VWS V14.01,2013-05-30 18:18:00,
2013-05-30 14:23:00,85.3,59.6,29.62,NNW,338,0.0,0.0,42,0.00,,,0.00,VWS V14.01,2013-05-30 18:23:00,
2013-05-30 14:28:00,85.1,59.5,29.62,WNW,292,2.5,2.5,42,0.00,,,0.00,VWS V14.01,2013-05-30 18:28:00,
2013-05-30 14:33:00,86.4,61.9,29.62,SE,135,2.7,2.7,44,0.00,,,0.00,VWS V14.01,2013-05-30 18:33:00,
2013-05-30 14:38:00,87.1,61.9,29.62,SE,135,2.9,2.9,43,0.00,,,0.00,VWS V14.01,2013-05-30 18:38:00,
2013-05-30 14:43:00,87.1,61.9,29.62,East,90,2.7,2.7,43,0.00,,,0.00,VWS V14.01,2013-05-30 18:43:00,
2013-05-30 14:48:00,86.5,60.7,29.62,East,90,0.9,0.9,42,0.00,,,0.00,VWS V14.01,2013-05-30 18:48:00,
2013-05-30 14:53:00,86.4,60.6,29.62,SSW,202,0.0,0.0,42,0.00,,,0.00,VWS V14.01,2013-05-30 18:53:00,
2013-05-30 14:58:00,86.7,61.6,29.62,SSW,202,2.2,2.2,43,0.00,,,0.00,VWS V14.01,2013-05-30 18:58:00,
2013-05-30 15:03:00,86.5,62.1,29.62,SSW,202,2.0,2.0,44,0.00,,,0.00,VWS V14.01,2013-05-30 19:03:00,
2013-05-30 15:08:00,86.5,62.7,29.62,South,180,2.5,2.5,45,0.00,,,0.00,VWS V14.01,2013-05-30 19:08:00,
2013-05-30 15:13:00,87.1,63.2,29.62,SE,135,4.7,4.7,45,0.00,,,0.00,VWS V14.01,2013-05-30 19:13:00,
2013-05-30 15:18:00,87.3,63.3,29.62,SE,135,6.3,6.3,45,0.00,,,0.00,VWS V14.01,2013-05-30 19:18:00,
2013-05-30 15:23:00,87.4,63.5,29.62,SSW,202,4.3,4.3,45,0.00,,,0.00,VWS V14.01,2013-05-30 19:23:00,
2013-05-30 15:28:00,87.6,63.0,29.62,SE,135,3.4,3.4,44,0.00,,,0.00,VWS V14.01,2013-05-30 19:28:00,
2013-05-30 15:33:00,87.8,63.2,29.62,SE,135,5.6,5.6,44,0.00,,,0.00,VWS V14.01,2013-05-30 19:33:00,
2013-05-30 15:38:00,88.3,64.3,29.62,SE,135,1.6,1.6,45,0.00,,,0.00,VWS V14.01,2013-05-30 19:38:00,
2013-05-30 15:43:00,89.1,65.0,29.59,SE,135,3.1,3.1,45,0.00,,,0.00,VWS V14.01,2013-05-30 19:43:00,
2013-05-30 15:48:00,89.4,64.7,29.59,SSE,158,4.3,4.3,44,0.00,,,0.00,VWS V14.01,2013-05-30 19:48:00,
2013-05-30 15:53:00,89.2,64.5,29.59,South,180,1.1,1.1,44,0.00,,,0.00,VWS V14.01,2013-05-30 19:53:00,
2013-05-30 15:58:00,88.7,63.3,29.59,SE,135,3.1,3.1,43,0.00,,,0.00,VWS V14.01,2013-05-30 19:58:00,
2013-05-30 16:03:00,88.5,63.2,29.59,SE,135,2.0,2.0,43,0.00,,,0.00,VWS V14.01,2013-05-30 20:03:00,
2013-05-30 16:08:00,89.1,65.0,29.59,NE,45,1.6,1.6,45,0.00,,,0.00,VWS V14.01,2013-05-30 20:08:00,
2013-05-30 16:13:00,90.1,65.9,29.59,South,180,5.6,5.6,45,0.00,,,0.00,VWS V14.01,2013-05-30 20:13:00,
2013-05-30 16:18:00,91.0,66.1,29.59,SSW,202,3.6,3.6,44,0.00,,,0.00,VWS V14.01,2013-05-30 20:18:00,
2013-05-30 16:23:00,91.9,66.3,29.59,SSW,202,3.6,3.6,43,0.00,,,0.00,VWS V14.01,2013-05-30 20:23:00,
2013-05-30 16:29:00,92.8,66.4,29.59,SSE,158,5.6,5.6,42,0.00,,,0.00,VWS V14.01,2013-05-30 20:29:00,
2013-05-30 16:34:00,93.7,65.8,29.59,South,180,2.0,2.0,40,0.00,,,0.00,VWS V14.01,2013-05-30 20:34:00,
2013-05-30 16:39:00,94.8,66.0,29.59,WNW,292,2.7,2.7,39,0.00,,,0.00,VWS V14.01,2013-05-30 20:39:00,
2013-05-30 16:44:00,96.3,66.6,29.59,SW,225,0.0,0.0,38,0.00,,,0.00,VWS V14.01,2013-05-30 20:44:00,
2013-05-30 16:49:00,97.2,65.8,29.59,West,270,1.1,1.1,36,0.00,,,0.00,VWS V14.01,2013-05-30 20:49:00,
2013-05-30 16:54:00,97.2,63.3,29.59,WSW,248,2.7,2.7,33,0.00,,,0.00,VWS V14.01,2013-05-30 20:54:00,
2013-05-30 16:59:00,96.1,61.5,29.59,SSE,158,5.4,5.4,32,0.00,,,0.00,VWS V14.01,2013-05-30 20:59:00,
2013-05-30 17:04:00,95.4,60.9,29.59,ESE,112,0.0,0.0,32,0.00,,,0.00,VWS V14.01,2013-05-30 21:04:00,
2013-05-30 17:09:00,94.8,61.3,29.59,West,270,2.5,2.5,33,0.00,,,0.00,VWS V14.01,2013-05-30 21:09:00,
2013-05-30 17:14:00,94.3,59.0,29.59,West,270,5.6,5.6,31,0.00,,,0.00,VWS V14.01,2013-05-30 21:14:00,
2013-05-30 17:19:00,94.1,58.9,29.59,SW,225,2.9,2.9,31,0.00,,,0.00,VWS V14.01,2013-05-30 21:19:00,
2013-05-30 17:24:00,94.1,58.9,29.59,WSW,248,3.1,3.1,31,0.00,,,0.00,VWS V14.01,2013-05-30 21:24:00,
2013-05-30 17:29:00,93.7,59.5,29.59,South,180,4.7,4.7,32,0.00,,,0.00,VWS V14.01,2013-05-30 21:29:00,
2013-05-30 17:34:00,93.2,59.0,29.59,North,0,3.6,3.6,32,0.00,,,0.00,VWS V14.01,2013-05-30 21:34:00,
2013-05-30 17:39:00,92.8,60.4,29.59,South,180,2.0,2.0,34,0.00,,,0.00,VWS V14.01,2013-05-30 21:39:00,
2013-05-30 17:44:00,92.7,58.5,29.56,WSW,248,3.8,3.8,32,0.00,,,0.00,VWS V14.01,2013-05-30 21:44:00,
2013-05-30 17:49:00,92.5,59.2,29.56,South,180,4.9,4.9,33,0.00,,,0.00,VWS V14.01,2013-05-30 21:49:00,
2013-05-30 17:54:00,91.9,58.8,29.56,SSE,158,4.3,4.3,33,0.00,,,0.00,VWS V14.01,2013-05-30 21:54:00,
2013-05-30 17:59:00,91.6,60.1,29.56,WSW,248,4.9,4.9,35,0.00,,,0.00,VWS V14.01,2013-05-30 21:59:00,
2013-05-30 18:04:00,91.2,60.6,29.56,South,180,3.8,3.8,36,0.00,,,0.00,VWS V14.01,2013-05-30 22:04:00,
2013-05-30 18:10:00,90.9,60.2,29.56,South,180,2.7,2.7,36,0.00,,,0.00,VWS V14.01,2013-05-30 22:10:00,
2013-05-30 18:15:00,90.7,61.6,29.56,WNW,292,2.9,2.9,38,0.00,,,0.00,VWS V14.01,2013-05-30 22:15:00,
2013-05-30 18:20:00,90.3,60.5,29.56,SSW,202,4.9,4.9,37,0.00,,,0.00,VWS V14.01,2013-05-30 22:20:00,
2013-05-30 18:25:00,90.1,61.1,29.56,South,180,1.6,1.6,38,0.00,,,0.00,VWS V14.01,2013-05-30 22:25:00,
2013-05-30 18:30:00,90.0,61.7,29.59,ESE,112,3.1,3.1,39,0.00,,,0.00,VWS V14.01,2013-05-30 22:30:00,
2013-05-30 18:35:00,89.6,60.7,29.59,ESE,112,6.3,6.3,38,0.00,,,0.00,VWS V14.01,2013-05-30 22:35:00,
2013-05-30 18:40:00,89.1,60.2,29.59,SW,225,3.8,3.8,38,0.00,,,0.00,VWS V14.01,2013-05-30 22:40:00,
2013-05-30 18:45:00,88.7,60.6,29.56,South,180,2.0,2.0,39,0.00,,,0.00,VWS V14.01,2013-05-30 22:45:00,
2013-05-30 18:50:00,88.3,60.3,29.56,South,180,3.1,3.1,39,0.00,,,0.00,VWS V14.01,2013-05-30 22:50:00,
2013-05-30 18:55:00,88.2,60.8,29.56,NNE,22,2.7,2.7,40,0.00,,,0.00,VWS V14.01,2013-05-30 22:55:00,
2013-05-30 19:00:00,87.8,60.5,29.56,SSW,202,2.5,2.5,40,0.00,,,0.00,VWS V14.01,2013-05-30 23:00:00,
2013-05-30 19:05:00,87.4,60.9,29.56,SSE,158,1.3,1.3,41,0.00,,,0.00,VWS V14.01,2013-05-30 23:05:00,
2013-05-30 19:10:00,86.7,60.9,29.56,South,180,2.5,2.5,42,0.00,,,0.00,VWS V14.01,2013-05-30 23:10:00,
2013-05-30 19:16:00,86.2,59.7,29.59,WSW,248,4.3,4.3,41,0.00,,,0.00,VWS V14.01,2013-05-30 23:16:00,
2013-05-30 19:21:00,85.5,59.1,29.59,South,180,2.5,2.5,41,0.00,,,0.00,VWS V14.01,2013-05-30 23:21:00,
2013-05-30 19:26:00,85.3,59.6,29.59,South,180,5.4,5.4,42,0.00,,,0.00,VWS V14.01,2013-05-30 23:26:00,
2013-05-30 19:31:00,84.7,59.1,29.59,South,180,4.0,4.0,42,0.00,,,0.00,VWS V14.01,2013-05-30 23:31:00,
2013-05-30 19:36:00,84.2,59.3,29.59,SSE,158,2.5,2.5,43,0.00,,,0.00,VWS V14.01,2013-05-30 23:36:00,
2013-05-30 19:41:00,83.8,59.6,29.59,SSW,202,2.5,2.5,44,0.00,,,0.00,VWS V14.01,2013-05-30 23:41:00,
2013-05-30 19:46:00,83.8,59.6,29.59,SSW,202,2.7,2.7,44,0.00,,,0.00,VWS V14.01,2013-05-30 23:46:00,
2013-05-30 19:51:00,83.8,59.6,29.59,SE,135,3.4,3.4,44,0.00,,,0.00,VWS V14.01,2013-05-30 23:51:00,
2013-05-30 19:56:00,83.7,59.5,29.59,WSW,248,6.0,6.0,44,0.00,,,0.00,VWS V14.01,2013-05-30 23:56:00,
2013-05-30 20:01:00,83.5,59.9,29.59,South,180,0.0,0.0,45,0.00,,,0.00,VWS V14.01,2013-05-31 00:01:00,
2013-05-30 20:06:00,83.1,59.6,29.59,South,180,0.0,0.0,45,0.00,,,0.00,VWS V14.01,2013-05-31 00:06:00,
2013-05-30 20:12:00,82.8,59.3,29.59,South,180,2.7,2.7,45,0.00,,,0.00,VWS V14.01,2013-05-31 00:12:00,
2013-05-30 20:17:00,82.4,59.0,29.59,SSE,158,2.2,2.2,45,0.00,,,0.00,VWS V14.01,2013-05-31 00:17:00,
2013-05-30 20:22:00,82.0,58.6,29.59,South,180,0.0,0.0,45,0.00,,,0.00,VWS V14.01,2013-05-31 00:22:00,
2013-05-30 20:27:00,81.9,59.1,29.59,South,180,2.0,2.0,46,0.00,,,0.00,VWS V14.01,2013-05-31 00:27:00,
2013-05-30 20:32:00,81.3,58.6,29.59,WNW,292,0.0,0.0,46,0.00,,,0.00,VWS V14.01,2013-05-31 00:32:00,
2013-05-30 20:37:00,81.0,58.9,29.59,NE,45,0.0,0.0,47,0.00,,,0.00,VWS V14.01,2013-05-31 00:37:00,
2013-05-30 20:42:00,80.6,58.5,29.59,NNE,22,1.1,1.1,47,0.00,,,0.00,VWS V14.01,2013-05-31 00:42:00,
2013-05-30 20:47:00,80.1,58.6,29.59,NNW,338,1.1,1.1,48,0.00,,,0.00,VWS V14.01,2013-05-31 00:47:00,
2013-05-30 20:52:00,79.5,59.3,29.59,WNW,292,0.0,0.0,50,0.00,,,0.00,VWS V14.01,2013-05-31 00:52:00,
2013-05-30 20:59:00,79.5,58.7,29.59,WSW,248,0.0,0.0,49,0.00,,,0.00,VWS V14.01,2013-05-31 00:59:00,
2013-05-30 21:04:00,79.2,58.9,29.59,NW,315,2.5,2.5,50,0.00,,,0.00,VWS V14.01,2013-05-31 01:04:00,
2013-05-30 21:09:00,78.8,59.2,29.59,North,0,1.3,1.3,51,0.00,,,0.00,VWS V14.01,2013-05-31 01:09:00,
2013-05-30 21:14:00,78.6,59.5,29.59,North,0,0.0,0.0,52,0.00,,,0.00,VWS V14.01,2013-05-31 01:14:00,
2013-05-30 21:19:00,78.3,59.2,29.59,WSW,248,0.0,0.0,52,0.00,,,0.00,VWS V14.01,2013-05-31 01:19:00,
2013-05-30 21:24:00,78.1,59.6,29.59,SSW,202,0.0,0.0,53,0.00,,,0.00,VWS V14.01,2013-05-31 01:24:00,
2013-05-30 21:30:00,77.9,59.4,29.59,WSW,248,0.0,0.0,53,0.00,,,0.00,VWS V14.01,2013-05-31 01:30:00,
2013-05-30 21:35:00,77.7,59.8,29.59,WSW,248,1.1,1.1,54,0.00,,,0.00,VWS V14.01,2013-05-31 01:35:00,
2013-05-30 21:40:00,77.5,59.6,29.59,SSW,202,0.0,0.0,54,0.00,,,0.00,VWS V14.01,2013-05-31 01:40:00,
2013-05-30 21:45:00,77.4,60.0,29.59,WSW,248,0.0,0.0,55,0.00,,,0.00,VWS V14.01,2013-05-31 01:45:00,
2013-05-30 21:50:00,77.2,59.8,29.59,WSW,248,0.0,0.0,55,0.00,,,0.00,VWS V14.01,2013-05-31 01:50:00,
2013-05-30 21:55:00,77.0,60.1,29.59,West,270,2.0,2.0,56,0.00,,,0.00,VWS V14.01,2013-05-31 01:55:00,
2013-05-30 22:00:00,76.8,60.9,29.59,SSE,158,2.9,2.9,58,0.00,,,0.00,VWS V14.01,2013-05-31 02:00:00,
2013-05-30 22:05:00,76.5,60.6,29.59,SSW,202,0.0,0.0,58,0.00,,,0.00,VWS V14.01,2013-05-31 02:05:00,
2013-05-30 22:10:00,76.3,60.9,29.59,SW,225,0.0,0.0,59,0.00,,,0.00,VWS V14.01,2013-05-31 02:10:00,
2013-05-30 22:15:00,76.1,60.8,29.59,SSE,158,0.0,0.0,59,0.00,,,0.00,VWS V14.01,2013-05-31 02:15:00,
2013-05-30 22:20:00,75.7,61.3,29.59,SSW,202,0.0,0.0,61,0.00,,,0.00,VWS V14.01,2013-05-31 02:20:00,
2013-05-30 22:25:00,75.6,60.7,29.59,SW,225,0.0,0.0,60,0.00,,,0.00,VWS V14.01,2013-05-31 02:25:00,
2013-05-30 22:30:00,75.6,61.2,29.62,SSW,202,1.1,1.1,61,0.00,,,0.00,VWS V14.01,2013-05-31 02:30:00,
2013-05-30 22:35:00,75.2,60.8,29.62,SSW,202,0.0,0.0,61,0.00,,,0.00,VWS V14.01,2013-05-31 02:35:00,
2013-05-30 22:40:00,74.7,61.2,29.62,SSW,202,0.0,0.0,63,0.00,,,0.00,VWS V14.01,2013-05-31 02:40:00,
2013-05-30 22:45:00,74.3,60.9,29.62,South,180,0.0,0.0,63,0.00,,,0.00,VWS V14.01,2013-05-31 02:45:00,
2013-05-30 22:50:00,74.1,61.2,29.62,SSW,202,1.1,1.1,64,0.00,,,0.00,VWS V14.01,2013-05-31 02:50:00,
2013-05-30 22:55:00,73.6,61.1,29.62,SSW,202,1.1,1.1,65,0.00,,,0.00,VWS V14.01,2013-05-31 02:55:00,
2013-05-30 23:01:00,73.2,61.2,29.59,South,180,2.9,2.9,66,0.00,,,0.00,VWS V14.01,2013-05-31 03:01:00,
2013-05-30 23:06:00,73.0,61.0,29.59,SSW,202,0.0,0.0,66,0.00,,,0.00,VWS V14.01,2013-05-31 03:06:00,
2013-05-30 23:11:00,73.0,61.5,29.59,SSW,202,0.0,0.0,67,0.00,,,0.00,VWS V14.01,2013-05-31 03:11:00,
2013-05-30 23:16:00,72.9,61.3,29.59,SSW,202,0.0,0.0,67,0.00,,,0.00,VWS V14.01,2013-05-31 03:16:00,
2013-05-30 23:21:00,72.7,61.1,29.59,SSW,202,1.1,1.1,67,0.00,,,0.00,VWS V14.01,2013-05-31 03:21:00,
2013-05-30 23:26:00,72.7,61.5,29.62,SSW,202,1.6,1.6,68,0.00,,,0.00,VWS V14.01,2013-05-31 03:26:00,
2013-05-30 23:31:00,72.7,61.5,29.62,SSW,202,0.9,0.9,68,0.00,,,0.00,VWS V14.01,2013-05-31 03:31:00,
2013-05-30 23:36:00,72.5,61.8,29.62,SSW,202,0.0,0.0,69,0.00,,,0.00,VWS V14.01,2013-05-31 03:36:00,
2013-05-30 23:41:00,72.3,61.2,29.62,SSW,202,0.0,0.0,68,0.00,,,0.00,VWS V14.01,2013-05-31 03:41:00,
2013-05-30 23:46:00,72.3,61.2,29.62,South,180,1.3,1.3,68,0.00,,,0.00,VWS V14.01,2013-05-31 03:46:00,
2013-05-30 23:51:00,72.3,61.2,29.62,South,180,0.0,0.0,68,0.00,,,0.00,VWS V14.01,2013-05-31 03:51:00,
2013-05-30 23:56:00,72.0,61.2,29.62,South,180,1.3,1.3,69,0.00,,,0.00,VWS V14.01,2013-05-31 03:56:00,